Time,TemperatureF,DewpointF,PressureIn,WindDirection,WindDirectionDegrees,WindSpeedMPH,WindSpeedGustMPH,Humidity,HourlyPrecipIn,Conditions,Clouds,dailyrainin,SoftwareType,DateUTC
2013-01-07 00:03:00,69.0,68.0,30.14,SE,124,0.0,0.0,97,0.00,,,0.06,,2013-01-07 05:03:00,
2013-01-07 00:12:00,69.0,68.0,30.14,SE,124,0.0,0.0,97,0.00,,,0.06,,2013-01-07 05:12:00,
2013-01-07 00:22:00,69.0,68.0,30.13,SE,124,0.0,0.0,96,0.00,,,0.06,,2013-01-07 05:22:00,
2013-01-07 00:33:00,69.0,68.0,30.13,SE,124,0.0,0.0,97,0.00,,,0.06,,2013-01-07 05:33:00,
2013-01-07 00:42:00,69.0,68.0,30.13,SE,124,0.0,0.0,97,0.00,,,0.06,,2013-01-07 05:42:00,
2013-01-07 00:53:00,69.0,68.0,30.13,SE,124,0.0,0.0,96,0.00,,,0.06,,2013-01-07 05:53:00,
2013-01-07 01:02:00,69.0,68.0,30.13,SE,124,0.0,0.0,96,0.00,,,0.06,,2013-01-07 06:02:00,
2013-01-07 01:12:00,69.0,68.0,30.13,SE,124,0.0,0.0,96,0.00,,,0.06,,2013-01-07 06:12:00,
2013-01-07 01:22:00,69.0,68.0,30.13,SE,124,0.0,0.0,96,0.00,,,0.06,,2013-01-07 06:22:00,
2013-01-07 09:23:00,70.0,69.0,30.16,NNE,32,0.0,2.0,98,0.00,,,0.00,,2013-01-07 14:23:00,
2013-01-07 09:33:00,71.0,70.0,30.17,ENE,75,0.0,2.0,96,0.00,,,0.00,,2013-01-07 14:33:00,
2013-01-07 09:43:00,71.0,70.0,30.17,ENE,75,0.0,2.0,96,0.00,,,0.00,,2013-01-07 14:43:00,
2013-01-07 09:53:00,71.0,69.0,30.18,East,85,0.0,4.0,94,0.00,,,0.00,,2013-01-07 14:53:00,
2013-01-07 10:03:00,72.0,70.0,30.18,ESE,110,2.0,4.0,93,0.00,,,0.00,,2013-01-07 15:03:00,
2013-01-07 10:12:00,72.0,70.0,30.18,ESE,110,2.0,4.0,93,0.00,,,0.00,,2013-01-07 15:12:00,
2013-01-07 10:22:00,72.0,70.0,30.18,NE,56,1.0,4.0,95,0.02,,,0.02,,2013-01-07 15:22:00,
2013-01-07 10:33:00,71.0,69.0,30.18,NE,53,1.0,2.0,95,0.03,,,0.03,,2013-01-07 15:33:00,
2013-01-07 10:43:00,71.0,69.0,30.18,NE,53,1.0,2.0,95,0.03,,,0.03,,2013-01-07 15:43:00,
2013-01-07 10:53:00,72.0,70.0,30.17,ENE,65,0.0,2.0,94,0.03,,,0.03,,2013-01-07 15:53:00,
2013-01-07 11:03:00,73.0,71.0,30.17,East,82,1.0,4.0,93,0.03,,,0.03,,2013-01-07 16:03:00,
2013-01-07 11:12:00,73.0,71.0,30.17,East,82,1.0,4.0,93,0.03,,,0.03,,2013-01-07 16:12:00,
2013-01-07 11:22:00,73.0,70.0,30.16,NE,39,1.0,5.0,91,0.00,,,0.03,,2013-01-07 16:22:00,
2013-01-07 11:33:00,74.0,70.0,30.15,ENE,58,1.0,4.0,88,0.00,,,0.03,,2013-01-07 16:33:00,
2013-01-07 11:43:00,74.0,70.0,30.15,ENE,58,1.0,4.0,88,0.00,,,0.03,,2013-01-07 16:43:00,
2013-01-07 11:53:00,75.0,70.0,30.16,NNW,343,0.0,2.0,85,0.00,,,0.03,,2013-01-07 16:53:00,
2013-01-07 12:03:00,76.0,70.0,30.15,NNE,22,0.0,3.0,83,0.00,,,0.03,,2013-01-07 17:03:00,
2013-01-07 12:12:00,76.0,70.0,30.15,NNE,22,0.0,3.0,83,0.00,,,0.03,,2013-01-07 17:12:00,
2013-01-07 12:23:00,76.0,69.0,30.14,NE,46,0.0,5.0,80,0.00,,,0.03,,2013-01-07 17:23:00,
2013-01-07 12:33:00,76.0,69.0,30.13,NNE,32,1.0,6.0,79,0.00,,,0.03,,2013-01-07 17:33:00,
2013-01-07 12:42:00,76.0,69.0,30.13,NNE,32,1.0,6.0,79,0.00,,,0.03,,2013-01-07 17:42:00,
2013-01-07 12:53:00,77.0,69.0,30.12,NE,50,1.0,4.0,76,0.00,,,0.03,,2013-01-07 17:53:00,
2013-01-07 13:03:00,76.0,70.0,30.11,ENE,69,2.0,7.0,81,0.00,,,0.03,,2013-01-07 18:03:00,
2013-01-07 13:12:00,76.0,70.0,30.11,ENE,69,2.0,7.0,81,0.00,,,0.03,,2013-01-07 18:12:00,
2013-01-07 13:23:00,76.0,70.0,30.11,NE,51,1.0,4.0,81,0.00,,,0.03,,2013-01-07 18:23:00,
2013-01-07 13:33:00,76.0,70.0,30.11,NE,43,1.0,5.0,81,0.00,,,0.03,,2013-01-07 18:33:00,
2013-01-07 13:42:00,77.0,70.0,30.10,NE,51,1.0,4.0,80,0.00,,,0.03,,2013-01-07 18:42:00,
2013-01-07 13:53:00,77.0,70.0,30.10,NE,51,1.0,4.0,80,0.00,,,0.03,,2013-01-07 18:53:00,
2013-01-07 14:03:00,78.0,71.0,30.10,NE,43,1.0,4.0,78,0.00,,,0.03,,2013-01-07 19:03:00,
2013-01-07 14:12:00,78.0,71.0,30.10,NE,43,1.0,4.0,78,0.00,,,0.03,,2013-01-07 19:12:00,
2013-01-07 14:23:00,79.0,71.0,30.09,NE,40,1.0,4.0,76,0.00,,,0.03,,2013-01-07 19:23:00,
2013-01-07 14:33:00,78.0,69.0,30.09,NE,46,2.0,6.0,75,0.00,,,0.03,,2013-01-07 19:33:00,
2013-01-07 14:43:00,78.0,69.0,30.09,NE,46,2.0,6.0,75,0.00,,,0.03,,2013-01-07 19:43:00,
2013-01-07 14:53:00,78.0,70.0,30.09,ENE,76,1.0,5.0,77,0.00,,,0.03,,2013-01-07 19:53:00,
2013-01-07 15:03:00,80.0,71.0,30.09,NE,46,1.0,6.0,75,0.00,,,0.03,,2013-01-07 20:03:00,
2013-01-07 15:12:00,80.0,71.0,30.09,NE,46,1.0,6.0,75,0.00,,,0.03,,2013-01-07 20:12:00,
2013-01-07 15:23:00,80.0,71.0,30.09,NE,34,3.0,7.0,74,0.00,,,0.03,,2013-01-07 20:23:00,
2013-01-07 15:33:00,80.0,71.0,30.09,ENE,63,1.0,8.0,73,0.00,,,0.03,,2013-01-07 20:33:00,
2013-01-07 15:42:00,80.0,71.0,30.09,ENE,63,1.0,8.0,73,0.00,,,0.03,,2013-01-07 20:42:00,
2013-01-07 15:53:00,79.0,69.0,30.09,ENE,75,1.0,6.0,72,0.00,,,0.03,,2013-01-07 20:53:00,
2013-01-07 16:03:00,80.0,70.0,30.09,NNE,30,1.0,5.0,71,0.00,,,0.03,,2013-01-07 21:03:00,
2013-01-07 16:12:00,80.0,70.0,30.09,NNE,30,1.0,5.0,71,0.00,,,0.03,,2013-01-07 21:12:00,
2013-01-07 16:23:00,79.0,69.0,30.09,East,90,1.0,4.0,71,0.00,,,0.03,,2013-01-07 21:23:00,
2013-01-07 16:33:00,80.0,69.0,30.10,ENE,72,2.0,4.0,70,0.00,,,0.03,,2013-01-07 21:33:00,
2013-01-07 16:43:00,80.0,69.0,30.10,ENE,72,2.0,4.0,70,0.00,,,0.03,,2013-01-07 21:43:00,
2013-01-07 16:53:00,79.0,70.0,30.10,NE,49,1.0,6.0,73,0.00,,,0.03,,2013-01-07 21:53:00,
2013-01-07 17:03:00,78.0,69.0,30.10,North,359,2.0,6.0,74,0.00,,,0.03,,2013-01-07 22:03:00,
2013-01-07 17:12:00,78.0,69.0,30.10,North,359,2.0,6.0,74,0.00,,,0.03,,2013-01-07 22:12:00,
2013-01-07 17:23:00,77.0,69.0,30.10,ENE,75,1.0,3.0,76,0.00,,,0.03,,2013-01-07 22:23:00,
2013-01-07 17:33:00,76.0,68.0,30.11,East,80,1.0,5.0,77,0.00,,,0.03,,2013-01-07 22:33:00,
2013-01-07 17:43:00,76.0,68.0,30.11,East,80,1.0,5.0,77,0.00,,,0.03,,2013-01-07 22:43:00,
2013-01-07 17:53:00,76.0,68.0,30.11,ENE,58,1.0,5.0,77,0.00,,,0.03,,2013-01-07 22:53:00,
2013-01-07 18:02:00,76.0,68.0,30.11,ENE,77,0.0,3.0,76,0.00,,,0.03,,2013-01-07 23:02:00,
2013-01-07 18:12:00,76.0,68.0,30.11,ENE,77,0.0,3.0,76,0.00,,,0.03,,2013-01-07 23:12:00,
2013-01-07 18:22:00,75.0,67.0,30.12,ENE,58,1.0,3.0,76,0.00,,,0.03,,2013-01-07 23:22:00,
2013-01-07 18:33:00,75.0,68.0,30.12,ENE,68,0.0,2.0,78,0.00,,,0.03,,2013-01-07 23:33:00,
2013-01-07 18:43:00,75.0,68.0,30.12,ENE,68,0.0,2.0,78,0.00,,,0.03,,2013-01-07 23:43:00,
2013-01-07 18:53:00,74.0,67.0,30.13,NE,54,0.0,4.0,80,0.00,,,0.03,,2013-01-07 23:53:00,
2013-01-07 19:03:00,74.0,68.0,30.13,ENE,72,0.0,2.0,82,0.00,,,0.03,,2013-01-08 00:03:00,
2013-01-07 19:12:00,74.0,68.0,30.13,ENE,72,0.0,2.0,82,0.00,,,0.03,,2013-01-08 00:12:00,
2013-01-07 19:22:00,74.0,68.0,30.14,NNE,16,0.0,1.0,83,0.00,,,0.03,,2013-01-08 00:22:00,
2013-01-07 19:33:00,74.0,69.0,30.14,ENE,77,0.0,2.0,84,0.00,,,0.03,,2013-01-08 00:33:00,
2013-01-07 19:42:00,74.0,69.0,30.14,ENE,77,0.0,2.0,84,0.00,,,0.03,,2013-01-08 00:42:00,
2013-01-07 19:53:00,73.0,68.0,30.14,NNE,32,1.0,3.0,85,0.00,,,0.03,,2013-01-08 00:53:00,
2013-01-07 20:03:00,73.0,69.0,30.14,NE,48,0.0,2.0,87,0.00,,,0.03,,2013-01-08 01:03:00,
2013-01-07 20:12:00,73.0,69.0,30.14,NE,48,0.0,2.0,87,0.00,,,0.03,,2013-01-08 01:12:00,
2013-01-07 20:22:00,73.0,69.0,30.14,ENE,65,0.0,1.0,88,0.00,,,0.03,,2013-01-08 01:22:00,
2013-01-07 20:33:00,72.0,69.0,30.15,ENE,65,0.0,1.0,89,0.00,,,0.03,,2013-01-08 01:33:00,
2013-01-07 20:42:00,72.0,69.0,30.15,ENE,65,0.0,1.0,89,0.00,,,0.03,,2013-01-08 01:42:00,
2013-01-07 20:52:00,72.0,69.0,30.15,ENE,63,0.0,0.0,90,0.00,,,0.03,,2013-01-08 01:52:00,
2013-01-07 21:02:00,72.0,69.0,30.15,ENE,65,0.0,0.0,91,0.00,,,0.03,,2013-01-08 02:02:00,
2013-01-07 21:12:00,72.0,69.0,30.15,ENE,65,0.0,0.0,91,0.00,,,0.03,,2013-01-08 02:12:00,
2013-01-07 21:22:00,72.0,70.0,30.15,ENE,65,0.0,0.0,92,0.00,,,0.03,,2013-01-08 02:22:00,
2013-01-07 21:33:00,72.0,70.0,30.15,ENE,65,0.0,0.0,92,0.00,,,0.03,,2013-01-08 02:33:00,
2013-01-07 21:42:00,72.0,70.0,30.15,ENE,65,0.0,0.0,92,0.00,,,0.03,,2013-01-08 02:42:00,
2013-01-07 21:53:00,71.0,69.0,30.15,ENE,65,0.0,0.0,92,0.00,,,0.03,,2013-01-08 02:53:00,
2013-01-07 22:03:00,71.0,69.0,30.15,ENE,65,0.0,0.0,93,0.00,,,0.03,,2013-01-08 03:03:00,
2013-01-07 22:12:00,71.0,69.0,30.15,ENE,65,0.0,0.0,93,0.00,,,0.03,,2013-01-08 03:12:00,
2013-01-07 22:22:00,71.0,69.0,30.14,ENE,65,0.0,0.0,93,0.00,,,0.03,,2013-01-08 03:22:00,
2013-01-07 22:32:00,71.0,69.0,30.14,ENE,64,0.0,1.0,94,0.00,,,0.03,,2013-01-08 03:32:00,
2013-01-07 22:43:00,71.0,69.0,30.14,ENE,64,0.0,1.0,94,0.00,,,0.03,,2013-01-08 03:43:00,
2013-01-07 22:53:00,70.0,68.0,30.14,ENE,64,0.0,1.0,94,0.00,,,0.03,,2013-01-08 03:53:00,
2013-01-07 23:02:00,71.0,69.0,30.14,NE,51,0.0,3.0,93,0.00,,,0.03,,2013-01-08 04:02:00,
2013-01-07 23:12:00,71.0,69.0,30.14,NE,51,0.0,3.0,93,0.00,,,0.03,,2013-01-08 04:12:00,
2013-01-07 23:22:00,71.0,69.0,30.14,NE,51,0.0,1.0,92,0.00,,,0.03,,2013-01-08 04:22:00,
2013-01-07 23:32:00,71.0,69.0,30.13,NE,49,0.0,1.0,93,0.00,,,0.03,,2013-01-08 04:32:00,
2013-01-07 23:42:00,71.0,69.0,30.13,NE,49,0.0,1.0,93,0.00,,,0.03,,2013-01-08 04:42:00,
2013-01-07 23:52:00,71.0,69.0,30.13,NE,43,0.0,1.0,93,0.00,,,0.03,,2013-01-08 04:52:00,